Terug naar catalogus

STARLINK-36240

ActiefCommunicatieVLEO
NORAD 67076·PAYLOAD·🇺🇸 United States

Gelanceerd Dec 14, 2025 vanaf Vandenberg Space Force Base

Loading…

Volgende Passages (komende 24 uur)

TLE

VersSource: CelesTrak SupGP

Epoch: Sep 15, 2026, 03:01 UTC

1 67076C 25298B   26258.12618056 -.00041189  00000+0 -34513-2 0  2584
2 67076  69.9998 256.8447 0003881 267.7676  50.3938 14.98354993    19

Volg STARLINK-36240 in realtime met AllMySat

Download on the App Store